Regional Weather Roundup
Issued by NWS

Home | Current Version | Previous Version | Graphics & Text | Print | Product List | Glossary Off
Versions: 1 2 3 4 5 6 7 8 9 10 11 12 13 14 15 16 17 18 19 20 21 22 23 24 25 26 27 28 29 30 31 32 33 34 35 36 37 38 39 40 41 42 43 44 45 46 47 48 49 50

000
ASUS43 KFSD 211102
RWRSD

WEATHER ROUNDUP FOR SOUTH DAKOTA
NATIONAL WEATHER SERVICE SIOUX FALLS SD
600 AM CDT MON AUG 21 2017

NOTE: "FAIR" INDICATES FEW OR NO CLOUDS BELOW 12,000 FEET WITH NO
SIGNIFICANT WEATHER AND/OR OBSTRUCTIONS TO VISIBILITY.


SDZ001>005-009-010-012>017-211200-
NORTHWEST AND NORTH CENTRAL SOUTH DAKOTA

CITY           SKY/WX    TMP DP  RH WIND       PRES   REMARKS
BUFFALO          N/A     56  50  80 SW6       29.95R
FAITH            N/A     61  61 100 S15       29.95F
MOBRIDGE       CLOUDY    65  58  78 S8        29.91R THUNDER
$$

SDZ012>016-024>037-041>051-057-063-072>074-211200-
SOUTHWEST AND SOUTH CENTRAL SOUTH DAKOTA

CITY           SKY/WX    TMP DP  RH WIND       PRES   REMARKS
RAPID CTY ARPT CLOUDY    61  52  72 NE8       29.99R
PIERRE         CLOUDY    60  54  80 NE8       29.97R
CUSTER         CLOUDY    62  59  90 VRB6      30.09S FOG
ELLSWORTH AFB  MOCLDY    61  53  74 CALM      29.98F
PHILIP         CLOUDY    63  56  78 NE10      29.97R
PINE RIDGE     CLOUDY    70  69  97 S8        29.96S
SPEARFISH      FAIR      55  54  94 SW5       30.03R
WINNER         FAIR      64  61  90 SE15      29.94F
$$

SDZ004>011-016>023-039-040-211200-
NORTHEAST SOUTH DAKOTA

CITY           SKY/WX    TMP DP  RH WIND       PRES   REMARKS
ABERDEEN       CLOUDY    56  55  97 NE5       30.03R
WATERTOWN      CLOUDY    61  57  87 E5        30.03R
BROOKINGS      MOCLDY    63  59  87 E7        30.02S
SISSETON         N/A     54  53  97 CALM      30.03R
$$

SDZ017-020-022-023-036>040-048>070-211200-
SOUTHEAST SOUTH DAKOTA

CITY           SKY/WX    TMP DP  RH WIND       PRES   REMARKS
SIOUX FALLS    MOCLDY    67  65  93 E8        30.00R
HURON          CLOUDY    62  59  90 E5        29.99F
CHAMBERLAIN    CLOUDY    60  58  94 E6        29.95F
MITCHELL       PTCLDY    61  60  97 NE6       29.98F
YANKTON        CLOUDY    70  65  84 E12       29.97S
$$

ABBREVIATIONS USED IN REMARKS
   TC - TEMPERATURE IN CELSIUS
  WCI - WIND CHILL INDEX
   HX - HEAT INDEX
  VSB - VISIBILITY





USA.gov is the U.S. government's official web portal to all federal, state and local government web resources and services.